Location: Cudham
(51.3000°N, 0.0667°E)
Time: 17:00:45
(UTC+00:00)

Cosmos 1420 Rocket - Pass Details

Date: 19 May 2025
Orbit: 750 x 777 km, 74.0° (Epoch: 13 June)

Event Time Altitude Azimuth Distance (km) Brightness Sun altitude
Rises 23:33:04 0° 335° (NNW) 3,272 8.6 -18.5°
Reaches altitude 10° 23:35:29 10° 337° (NNW) 2,340 7.6 -18.6°
Maximum altitude 23:40:48 80° 64° (ENE) 795 4.0 -18.6°
Enters shadow 23:43:25 31° 148° (SSE) 1,338 4.8 -18.7°
